SAS263 ENGM-ENBR

Flight info

Callsign SAS263
Flight time 0h 39m
Altitude 28000
Route ATLAP DCT AGEKU DCT PESUR
Aircraft A320/M-SDE3FGHIRWY/LB1

Departure

Time 2026-05-07 16:58
Airport Oslo-Gardermoen International Airport (ENGM)

Arrival

Time 2026-05-07 17:38
Airport Bergen Airport, Flesland (ENBR)
Time Latitude Longitude Altitude Speed Heading
2026-05-07 16:11 60.19590 11.09931 691 ft 0 kts 106°
2026-05-07 16:46 60.19596 11.09890 684 ft 4 kts 106°
2026-05-07 16:47 60.19604 11.09838 683 ft 4 kts 106°
2026-05-07 16:47 60.19611 11.09786 683 ft 4 kts 106°
2026-05-07 16:47 60.19615 11.09758 691 ft 0 kts 106°
2026-05-07 16:51 60.19615 11.09762 684 ft 1 kts 104°
2026-05-07 16:51 60.19622 11.09787 691 ft 4 kts 45°
2026-05-07 16:52 60.19660 11.09768 687 ft 8 kts 338°
2026-05-07 16:52 60.19711 11.09693 691 ft 10 kts 301°
2026-05-07 16:52 60.19736 11.09536 689 ft 13 kts 286°
2026-05-07 16:52 60.19764 11.09339 686 ft 16 kts 286°
2026-05-07 16:53 60.19798 11.09104 685 ft 19 kts 286°
2026-05-07 16:53 60.19836 11.08838 688 ft 16 kts 287°
2026-05-07 16:53 60.19839 11.08822 691 ft 0 kts 287°
2026-05-07 16:53 60.19842 11.08794 685 ft 4 kts 284°
2026-05-07 16:54 60.19874 11.08738 686 ft 8 kts 348°
2026-05-07 16:54 60.19941 11.08766 691 ft 11 kts 18°
2026-05-07 16:54 60.20027 11.08818 690 ft 14 kts 15°
2026-05-07 16:54 60.20131 11.08877 691 ft 17 kts 16°
2026-05-07 16:55 60.20254 11.08948 691 ft 20 kts 16°
2026-05-07 16:55 60.20401 11.09034 685 ft 25 kts 16°
2026-05-07 16:55 60.20533 11.09110 680 ft 14 kts 16°
2026-05-07 16:55 60.20611 11.09138 682 ft 12 kts 346°
2026-05-07 16:56 60.20655 11.09001 683 ft 12 kts 288°
2026-05-07 16:56 60.20677 11.08855 683 ft 10 kts 286°
2026-05-07 16:56 60.20659 11.08617 685 ft 10 kts 196°
2026-05-07 16:57 60.20653 11.08614 685 ft 0 kts 195°
2026-05-07 16:57 60.20646 11.08611 685 ft 2 kts 195°
2026-05-07 16:57 60.20608 11.08590 682 ft 23 kts 195°
2026-05-07 16:57 60.20201 11.08352 688 ft 95 kts 196°
2026-05-07 16:58 60.19373 11.07873 687 ft 149 kts 196°
2026-05-07 16:58 60.18324 11.07242 1143 ft 156 kts 198°
2026-05-07 16:58 60.17296 11.06540 1824 ft 156 kts 206°
2026-05-07 16:58 60.16390 11.05198 2222 ft 173 kts 230°
2026-05-07 16:59 60.15769 11.02970 2556 ft 195 kts 248°
2026-05-07 16:59 60.15210 11.00320 2910 ft 219 kts 247°
2026-05-07 16:59 60.14574 10.97360 3356 ft 243 kts 247°
2026-05-07 16:59 60.14083 10.94014 4031 ft 257 kts 265°
2026-05-07 17:00 60.14018 10.90398 4984 ft 261 kts 270°
2026-05-07 17:00 60.14032 10.86736 5969 ft 264 kts 271°
2026-05-07 17:00 60.14071 10.83035 6918 ft 267 kts 271°
2026-05-07 17:00 60.14117 10.79293 7860 ft 269 kts 271°
2026-05-07 17:01 60.14161 10.75532 8826 ft 271 kts 271°
2026-05-07 17:01 60.14200 10.71744 9791 ft 272 kts 271°
2026-05-07 17:01 60.14236 10.67906 10485 ft 283 kts 271°
2026-05-07 17:01 60.14271 10.63807 10750 ft 305 kts 271°
2026-05-07 17:02 60.14303 10.59423 11162 ft 320 kts 271°
2026-05-07 17:02 60.14331 10.54913 11867 ft 325 kts 270°
2026-05-07 17:02 60.14358 10.50351 12628 ft 329 kts 270°
2026-05-07 17:02 60.14387 10.45748 13397 ft 332 kts 270°
2026-05-07 17:03 60.14416 10.41099 14124 ft 335 kts 270°
2026-05-07 17:03 60.14442 10.36411 14815 ft 337 kts 270°
2026-05-07 17:03 60.14466 10.31699 15525 ft 339 kts 270°
2026-05-07 17:03 60.14487 10.26966 16222 ft 340 kts 270°
2026-05-07 17:04 60.14506 10.22207 16924 ft 342 kts 270°
2026-05-07 17:04 60.14524 10.17435 17631 ft 343 kts 271°
2026-05-07 17:04 60.14538 10.12629 18329 ft 345 kts 271°
2026-05-07 17:04 60.14553 10.07790 18967 ft 347 kts 271°
2026-05-07 17:05 60.14567 10.02940 19615 ft 349 kts 271°
2026-05-07 17:05 60.14577 9.98053 20252 ft 352 kts 270°
2026-05-07 17:05 60.14588 9.93195 20888 ft 354 kts 270°
2026-05-07 17:05 60.14595 9.88180 21514 ft 356 kts 271°
2026-05-07 17:06 60.14604 9.83206 22100 ft 358 kts 271°
2026-05-07 17:06 60.14631 9.78197 22668 ft 360 kts 272°
2026-05-07 17:06 60.14768 9.73228 23228 ft 362 kts 274°
2026-05-07 17:06 60.14986 9.68187 23749 ft 364 kts 275°
2026-05-07 17:07 60.15238 9.63118 24205 ft 366 kts 276°
2026-05-07 17:07 60.15494 9.58014 24630 ft 367 kts 276°
2026-05-07 17:07 60.15736 9.52913 24872 ft 367 kts 275°
2026-05-07 17:07 60.15960 9.47797 25119 ft 368 kts 275°
2026-05-07 17:08 60.16167 9.42680 25372 ft 368 kts 275°
2026-05-07 17:08 60.16368 9.37545 25616 ft 369 kts 275°
2026-05-07 17:08 60.16564 9.32394 25887 ft 370 kts 275°
2026-05-07 17:08 60.16756 9.27253 26041 ft 370 kts 275°
2026-05-07 17:09 60.16951 9.22062 26076 ft 374 kts 275°
2026-05-07 17:09 60.17145 9.16848 26077 ft 374 kts 275°
2026-05-07 17:09 60.17338 9.11639 26076 ft 375 kts 275°
2026-05-07 17:09 60.17529 9.06422 26087 ft 375 kts 275°
2026-05-07 17:10 60.17724 9.01198 26087 ft 375 kts 275°
2026-05-07 17:10 60.17917 8.95967 26086 ft 375 kts 275°
2026-05-07 17:10 60.18103 8.90736 26086 ft 375 kts 274°
2026-05-07 17:10 60.18286 8.85516 26086 ft 375 kts 274°
2026-05-07 17:11 60.18468 8.80287 26109 ft 375 kts 274°
2026-05-07 17:11 60.18648 8.75059 26108 ft 375 kts 274°
2026-05-07 17:11 60.18766 8.71594 26107 ft 375 kts 274°
2026-05-07 17:11 60.18944 8.66371 26106 ft 375 kts 274°
2026-05-07 17:12 60.19120 8.61150 26103 ft 374 kts 274°
2026-05-07 17:12 60.19297 8.55926 26129 ft 374 kts 274°
2026-05-07 17:12 60.19473 8.50697 26128 ft 374 kts 274°
2026-05-07 17:12 60.19646 8.45478 26126 ft 374 kts 274°
2026-05-07 17:13 60.19813 8.40258 26119 ft 374 kts 274°
2026-05-07 17:13 60.19974 8.35044 26120 ft 374 kts 274°
2026-05-07 17:13 60.20134 8.29824 26094 ft 374 kts 274°
2026-05-07 17:13 60.20295 8.24590 26112 ft 376 kts 274°
2026-05-07 17:14 60.20456 8.19338 26115 ft 377 kts 274°
2026-05-07 17:14 60.20616 8.14073 26119 ft 377 kts 274°
2026-05-07 17:14 60.20771 8.08811 26122 ft 377 kts 274°
2026-05-07 17:14 60.20922 8.03548 26123 ft 377 kts 274°
2026-05-07 17:15 60.21073 7.98288 26134 ft 376 kts 274°
2026-05-07 17:15 60.21224 7.93039 26133 ft 376 kts 274°
2026-05-07 17:15 60.21371 7.87857 26133 ft 376 kts 273°
2026-05-07 17:15 60.21516 7.82600 26133 ft 376 kts 273°
2026-05-07 17:16 60.21657 7.77358 26135 ft 376 kts 273°
2026-05-07 17:16 60.21795 7.72104 26135 ft 376 kts 273°
2026-05-07 17:16 60.21930 7.66850 26135 ft 376 kts 273°
2026-05-07 17:16 60.22066 7.61598 26134 ft 376 kts 273°
2026-05-07 17:17 60.22203 7.56355 26132 ft 376 kts 273°
2026-05-07 17:17 60.22338 7.51105 26131 ft 376 kts 273°
2026-05-07 17:17 60.22469 7.45850 26122 ft 376 kts 273°
2026-05-07 17:17 60.22598 7.40613 25982 ft 373 kts 273°
2026-05-07 17:18 60.22723 7.35432 25731 ft 369 kts 273°
2026-05-07 17:18 60.22846 7.30283 25482 ft 368 kts 272°
2026-05-07 17:18 60.22966 7.25150 25234 ft 366 kts 272°
2026-05-07 17:18 60.23083 7.20055 24911 ft 362 kts 272°
2026-05-07 17:19 60.23193 7.15031 24425 ft 357 kts 272°
2026-05-07 17:19 60.23302 7.10067 23920 ft 353 kts 272°
2026-05-07 17:19 60.23407 7.05151 23383 ft 351 kts 272°
2026-05-07 17:19 60.23512 7.00264 22889 ft 347 kts 272°
2026-05-07 17:20 60.23614 6.95437 22407 ft 344 kts 272°
2026-05-07 17:20 60.23712 6.90651 21940 ft 341 kts 272°
2026-05-07 17:20 60.23810 6.85917 21518 ft 337 kts 272°
2026-05-07 17:20 60.23905 6.81225 21086 ft 333 kts 272°
2026-05-07 17:21 60.23994 6.76668 20668 ft 329 kts 271°
2026-05-07 17:21 60.24077 6.72087 20248 ft 325 kts 271°
2026-05-07 17:21 60.24158 6.67611 20071 ft 314 kts 271°
2026-05-07 17:21 60.24243 6.63292 19941 ft 303 kts 272°
2026-05-07 17:22 60.24542 6.59157 19815 ft 295 kts 281°
2026-05-07 17:22 60.25156 6.55281 19652 ft 287 kts 289°
2026-05-07 17:22 60.25998 6.51697 18971 ft 281 kts 292°
2026-05-07 17:22 60.26869 6.48164 18191 ft 281 kts 292°
2026-05-07 17:23 60.27736 6.44645 17565 ft 280 kts 292°
2026-05-07 17:23 60.28597 6.41123 17023 ft 280 kts 292°
2026-05-07 17:23 60.29452 6.37612 16486 ft 278 kts 292°
2026-05-07 17:23 60.30304 6.34116 15958 ft 276 kts 292°
2026-05-07 17:24 60.31146 6.30648 15431 ft 274 kts 292°
2026-05-07 17:24 60.31982 6.27207 15006 ft 273 kts 292°
2026-05-07 17:24 60.32814 6.23767 14585 ft 272 kts 291°
2026-05-07 17:24 60.33638 6.20344 14168 ft 271 kts 291°
2026-05-07 17:25 60.34459 6.16918 13721 ft 270 kts 291°
2026-05-07 17:25 60.35278 6.13504 13245 ft 270 kts 291°
2026-05-07 17:25 60.36094 6.10101 12784 ft 269 kts 291°
2026-05-07 17:25 60.36899 6.06768 12343 ft 268 kts 291°
2026-05-07 17:26 60.37712 6.03392 11888 ft 266 kts 291°
2026-05-07 17:26 60.38523 6.00011 11444 ft 268 kts 291°
2026-05-07 17:26 60.39331 5.96626 11012 ft 267 kts 291°
2026-05-07 17:26 60.40136 5.93254 10585 ft 266 kts 291°
2026-05-07 17:27 60.40939 5.89889 10156 ft 265 kts 291°
2026-05-07 17:27 60.41740 5.86520 9712 ft 266 kts 291°
2026-05-07 17:27 60.42532 5.83188 9231 ft 258 kts 292°
2026-05-07 17:27 60.43303 5.79949 8776 ft 254 kts 291°
2026-05-07 17:28 60.44065 5.76731 8322 ft 253 kts 292°
2026-05-07 17:28 60.44824 5.73520 8015 ft 252 kts 292°
2026-05-07 17:28 60.45563 5.70387 7747 ft 243 kts 292°
2026-05-07 17:28 60.46287 5.67306 7494 ft 242 kts 292°
2026-05-07 17:29 60.47184 5.64416 7238 ft 245 kts 310°
2026-05-07 17:29 60.48532 5.62303 6978 ft 247 kts 332°
2026-05-07 17:29 60.50171 5.61251 6734 ft 248 kts 348°
2026-05-07 17:29 60.51782 5.60115 6488 ft 245 kts 321°
2026-05-07 17:30 60.52757 5.57417 6222 ft 238 kts 285°
2026-05-07 17:30 60.52962 5.54132 5956 ft 234 kts 262°
2026-05-07 17:30 60.52680 5.50890 5690 ft 233 kts 257°
2026-05-07 17:30 60.52395 5.47640 5426 ft 233 kts 258°
2026-05-07 17:31 60.52128 5.44386 5160 ft 233 kts 259°
2026-05-07 17:31 60.51864 5.41141 4928 ft 233 kts 259°
2026-05-07 17:31 60.51601 5.37898 4662 ft 232 kts 257°
2026-05-07 17:31 60.51340 5.34685 4397 ft 231 kts 257°
2026-05-07 17:32 60.51076 5.31468 4132 ft 230 kts 258°
2026-05-07 17:32 60.50762 5.28298 3992 ft 227 kts 249°
2026-05-07 17:32 60.50086 5.25419 3823 ft 226 kts 238°
2026-05-07 17:32 60.49331 5.22715 3645 ft 217 kts 238°
2026-05-07 17:33 60.48588 5.20064 3463 ft 212 kts 238°
2026-05-07 17:33 60.47782 5.17646 3292 ft 203 kts 220°
2026-05-07 17:33 60.46620 5.16367 3121 ft 189 kts 190°
2026-05-07 17:33 60.45329 5.16403 3038 ft 186 kts 169°
2026-05-07 17:34 60.44060 5.16839 2974 ft 182 kts 170°
2026-05-07 17:34 60.42832 5.17257 2730 ft 171 kts 170°
2026-05-07 17:34 60.41698 5.17642 2504 ft 163 kts 170°
2026-05-07 17:34 60.40618 5.18008 2295 ft 147 kts 170°
2026-05-07 17:35 60.39656 5.18332 2115 ft 139 kts 170°
2026-05-07 17:35 60.38712 5.18652 1916 ft 137 kts 170°
2026-05-07 17:35 60.37766 5.18972 1711 ft 138 kts 171°
2026-05-07 17:35 60.36814 5.19297 1514 ft 138 kts 170°
2026-05-07 17:36 60.35869 5.19616 1334 ft 138 kts 171°
2026-05-07 17:36 60.34922 5.19934 1131 ft 138 kts 171°
2026-05-07 17:36 60.33972 5.20257 930 ft 139 kts 171°
2026-05-07 17:36 60.33010 5.20581 740 ft 141 kts 171°
2026-05-07 17:37 60.32034 5.20910 529 ft 142 kts 172°
2026-05-07 17:37 60.31062 5.21240 353 ft 142 kts 172°
2026-05-07 17:37 60.30090 5.21567 169 ft 139 kts 172°
2026-05-07 17:37 60.29263 5.21840 160 ft 97 kts 171°
2026-05-07 17:38 60.28798 5.21999 163 ft 37 kts 170°
2026-05-07 17:38 60.28671 5.22080 161 ft 15 kts 120°
2026-05-07 17:38 60.28674 5.22238 164 ft 0 kts 80°
2026-05-07 17:39 60.28675 5.22250 164 ft 3 kts 79°
2026-05-07 17:39 60.28680 5.22300 166 ft 3 kts 79°
2026-05-07 17:40 60.28684 5.22352 168 ft 6 kts 79°
2026-05-07 17:40 60.28697 5.22443 171 ft 8 kts 68°
2026-05-07 17:40 60.28714 5.22550 174 ft 7 kts 80°
2026-05-07 17:40 60.28723 5.22661 174 ft 9 kts 81°
2026-05-07 17:41 60.28730 5.22771 174 ft 9 kts 84°
2026-05-07 17:41 60.28738 5.22862 176 ft 0 kts 81°
2026-05-07 17:41 60.28738 5.22872 176 ft 2 kts 81°
2026-05-07 17:41 60.28741 5.22902 176 ft 1 kts 81°
2026-05-07 17:42 60.28741 5.22908 176 ft 0 kts 81°